Location: Geçitköy
(36.7327°N, 29.8010°E)
Time: 20:02:45
(UTC+00:00)

Nadezhda 3 Rocket - Pass Details

Date: 12 January 2026
Orbit: 956 x 998 km, 82.9° (Epoch: 10 February)

Event Time Altitude Azimuth Distance (km) Brightness Sun altitude
Rises 16:25:25 0° 169° (S) 3,626 7.1 -15.8°
Reaches altitude 10° 16:27:59 10° 164° (SSE) 2,681 6.3 -16.3°
Maximum altitude 16:33:51 50° 91° (E) 1,202 4.1 -17.4°
Drops below altitude 10° 16:39:45 10° 18° (NNE) 2,693 6.0 -18.6°
Sets 16:42:19 0° 13° (NNE) 3,645 6.7 -19.1°
